Wind_Speed
77 78 79 78 78 77 77 77 78 78 79 80 81 81 82 81 81 80 79 79 77 76 76 74 73 72 70 71 72 71 70 68 68 69 70 70 71 70 68 68 68 68 66 64 64 64 64 64 63 62 62 62 62 62 61 60 61 61 62 61 60 58 56 54 51 48 45 42 37 32 30 29 29 28 25 23 22 19 17 17 17 17 16 15 14
78 80 81 81 80 80 79 79 79 79 79 80 80 80 81 81 81 80 79 79 78 77 76 74 73 72 73 73 73 71 68 69 70 71 72 72 71 69 69 69 68 67 65 64 64 64 64 63 63 63 63 63 62 62 61 61 62 62 61 60 58 56 54 51 49 46 43 39 34 29 28 28 27 25 24 22 20 18 17 17 17 17 16 15 14
79 81 83 82 81 80 79 79 79 79 79 79 80 81 82 82 81 80 80 79 78 77 76 74 73 74 75 74 73 71 71 72 72 72 72 71 70 69 69 68 66 65 64 64 64 64 63 63 63 64 64 63 63 62 62 62 63 62 60 58 56 54 51 49 47 44 40 35 30 27 27 26 25 24 23 21 18 17 17 17 17 17 16 15 14
80 81 81 82 81 79 79 79 79 79 80 81 82 83 83 82 81 80 80 79 78 77 76 75 75 75 74 73 72 72 73 73 72 73 73 72 70 68 67 65 64 64 64 64 64 64 63 64 65 65 64 64 64 63 63 63 62 60 57 55 53 51 50 48 45 41 36 31 27 26 25 24 24 23 22 19 17 17 17 17 17 17 16 15 14
80 80 80 80 80 79 80 81 81 82 83 83 83 83 82 80 78 77 77 77 77 76 76 76 76 74 72 72 72 73 72 71 71 72 72 70 68 66 64 63 64 64 64 64 64 64 64 65 66 65 65 65 64 64 63 62 60 57 55 53 51 50 48 46 42 36 31 27 25 24 23 23 22 22 21 18 17 17 17 17 17 16 15 14 14
78 79 79 80 81 81 81 82 82 82 84 85 86 84 80 77 75 72 71 71 71 71 71 72 72 72 70 70 70 69 68 67 67 67 67 67 65 64 63 63 64 64 64 64 65 65 66 67 67 66 66 66 65 64 62 60 58 55 53 51 49 48 46 43 38 32 28 25 23 23 23 22 21 21 19 18 17 17 18 18 17 15 14 14 13
79 79 80 79 78 75 72 71 71 75 80 83 83 82 79 76 71 65 64 65 65 64 65 65 65 67 66 65 64 64 64 64 64 64 64 65 65 64 64 65 65 65 65 65 66 67 69 69 68 67 67 67 65 62 60 58 56 53 51 49 47 46 43 39 34 30 26 23 22 23 23 22 21 19 18 18 18 18 18 17 17 15 13 13 13
68 69 68 65 62 60 60 60 64 73 76 74 74 73 73 71 64 58 58 59 60 63 63 61 61 61 61 62 63 64 65 64 63 63 65 67 68 66 65 66 66 66 67 68 69 71 71 70 68 67 67 65 62 60 58 56 54 51 49 47 44 42 38 34 31 29 26 22 22 24 24 23 21 19 18 18 18 19 19 18 16 14 13 13 14
57 55 56 56 55 56 60 61 64 71 68 64 62 60 60 58 54 53 54 55 57 60 59 57 58 58 60 64 67 70 70 68 67 68 69 71 70 68 67 68 68 69 70 71 73 73 72 69 67 66 64 61 59 58 56 54 52 49 46 43 40 37 34 31 30 28 24 21 22 24 25 24 21 20 19 19 19 20 20 18 16 14 13 13 14
61 57 61 62 62 66 69 65 64 66 64 61 58 56 56 52 50 50 51 53 55 56 56 58 62 66 70 73 75 75 75 74 74 74 73 72 70 68 68 70 71 72 73 75 75 73 70 68 66 63 61 58 57 55 53 51 49 46 42 39 35 32 31 31 30 27 23 21 23 24 24 23 21 20 20 20 20 20 20 19 17 15 14 14 15
69 69 74 69 67 71 68 63 65 68 69 68 65 64 61 53 49 50 52 55 57 60 64 69 75 80 82 80 79 78 78 79 79 76 73 71 70 68 70 73 74 74 75 76 74 70 67 65 62 60 59 57 54 52 50 47 46 42 37 34 31 30 31 31 29 25 23 22 23 25 24 23 22 21 21 21 21 21 20 19 17 16 15 15 16
75 78 82 76 70 68 63 65 70 74 74 74 76 75 68 60 57 59 63 66 69 74 79 83 86 88 87 83 81 83 84 83 80 77 74 73 73 72 74 75 75 76 75 73 70 66 63 62 59 58 57 53 49 47 47 45 42 37 33 31 30 31 32 31 27 24 23 23 24 25 24 23 23 22 22 22 22 22 21 20 18 17 16 16 17
79 81 82 79 74 72 71 73 76 78 80 80 81 80 77 74 74 77 81 83 84 84 87 89 90 90 88 87 88 89 88 84 80 78 77 77 76 75 76 75 75 74 72 68 65 62 61 60 58 56 52 48 45 45 45 42 38 34 31 30 31 32 33 30 26 24 23 24 26 26 25 25 24 23 23 23 24 24 23 21 20 19 18 19 19
82 83 85 82 79 80 81 81 81 83 85 87 88 88 87 85 85 88 89 90 88 86 87 88 88 88 88 89 91 90 86 82 79 78 77 75 74 74 74 72 71 69 66 64 62 61 60 58 55 51 47 45 44 43 42 39 35 31 29 30 32 33 32 30 26 24 25 26 27 27 27 27 25 25 25 24 25 26 24 22 21 21 21 21 21
85 86 87 85 84 86 88 89 88 88 90 94 97 97 94 90 89 89 88 88 87 88 89 89 89 88 89 90 89 86 82 80 79 76 73 70 71 71 69 67 65 64 63 62 61 59 57 53 50 47 45 44 42 40 38 36 32 30 30 31 32 32 32 29 26 25 26 28 29 29 29 28 27 26 26 25 26 27 27 25 23 23 24 24 25
89 89 89 88 89 90 91 91 91 92 94 97 99 99 97 94 91 88 88 88 90 92 91 90 90 89 89 88 85 82 80 79 76 71 68 68 68 66 63 61 60 61 61 61 60 56 52 48 46 46 45 42 40 38 36 32 30 30 31 31 31 31 32 30 26 26 28 30 31 32 31 30 28 27 27 27 26 27 28 28 27 27 27 27 28
92 92 92 92 93 92 93 94 94 94 94 95 95 94 92 90 88 88 90 91 92 92 90 89 88 87 86 84 82 80 79 76 71 67 67 66 63 59 58 58 59 59 60 60 57 53 49 47 45 45 43 41 40 37 32 30 30 31 31 31 31 31 32 30 28 27 29 32 34 34 33 32 30 28 28 28 28 28 28 29 29 28 28 29 29
94 94 94 94 94 94 95 95 94 94 93 92 90 87 85 85 87 89 90 90 90 88 86 85 83 82 81 80 78 75 72 69 66 66 66 63 57 56 58 60 60 61 61 59 55 51 48 46 44 43 42 41 39 34 30 30 31 30 30 31 31 32 32 31 30 31 33 35 36 36 35 33 31 29 29 29 29 29 29 29 30 29 27 28 29
94 95 95 95 95 96 97 96 95 93 91 88 86 85 85 86 88 88 88 87 85 84 82 80 78 78 78 76 72 69 65 63 64 65 63 58 55 57 60 61 61 61 60 57 53 51 48 45 43 41 41 40 37 32 30 31 31 31 31 31 31 32 33 33 33 34 36 37 37 36 35 33 32 29 30 30 30 30 29 29 31 31 29 28 29
94 94 95 96 96 97 96 95 94 91 87 85 85 86 86 86 86 85 84 83 81 79 77 76 75 74 73 72 69 66 63 64 67 65 60 56 56 60 62 61 60 59 58 56 53 50 47 43 42 42 41 38 35 33 32 32 32 33 33 31 31 32 35 36 36 35 36 37 34 34 35 33 31 30 30 31 31 31 30 30 31 32 32 30 29
93 93 94 95 96 96 95 94 92 88 85 84 84 84 83 81 81 81 80 78 77 76 75 74 72 70 70 69 68 65 66 69 68 63 59 58 59 61 61 61 59 57 56 55 53 51 47 44 44 43 40 37 36 34 33 34 35 36 34 32 31 34 38 39 37 35 37 36 32 32 33 32 30 30 31 32 32 31 31 31 32 33 33 33 31
92 92 92 92 91 90 89 88 86 83 82 81 79 76 73 73 75 75 75 74 73 73 72 71 70 70 70 69 68 68 69 69 65 61 59 60 61 62 60 58 56 55 54 54 54 52 48 47 47 43 38 37 37 36 35 37 39 38 35 33 33 35 39 39 37 36 36 33 29 29 31 30 30 30 31 32 33 32 31 32 33 34 34 34 33
88 84 81 80 78 78 78 78 76 74 73 71 67 65 65 68 70 71 71 70 70 71 70 69 69 69 68 68 69 70 69 65 62 60 59 61 62 61 58 53 53 55 54 54 54 52 51 51 48 42 39 39 40 39 39 41 42 37 34 33 32 34 37 37 36 36 34 29 26 27 30 30 29 30 32 33 34 33 32 33 34 35 36 36 35
79 73 70 70 68 67 66 65 64 63 63 62 61 63 65 66 67 67 67 68 68 68 69 68 67 66 67 68 68 67 63 60 60 59 59 60 61 59 55 53 55 57 55 54 54 54 54 51 47 44 42 42 43 43 43 45 44 37 33 31 31 33 36 36 35 35 32 28 25 26 28 29 29 30 32 34 35 34 34 34 35 36 37 37 38
67 62 63 67 69 68 63 57 57 59 60 60 60 61 63 65 64 63 64 65 65 65 66 66 66 66 67 65 61 59 57 57 58 58 59 59 58 56 55 56 57 56 55 55 56 56 55 51 48 47 45 44 45 46 47 47 44 38 34 32 31 33 36 36 35 34 32 27 25 24 26 28 29 31 33 34 35 35 35 35 36 37 38 38 39
60 57 59 65 67 64 58 55 57 60 61 60 58 56 57 59 58 58 59 60 60 60 61 63 64 63 61 57 56 57 58 59 58 58 57 56 55 55 54 55 55 55 56 57 57 56 53 50 48 47 46 45 46 49 48 45 41 38 36 33 33 34 37 37 36 35 32 29 28 28 28 29 30 31 33 35 36 37 36 36 36 36 37 37 39
61 58 58 59 59 58 57 59 61 62 62 59 55 52 52 53 55 56 58 58 58 59 60 60 60 58 57 57 59 61 62 61 59 58 56 51 47 49 51 52 53 54 55 55 54 53 51 51 50 49 48 48 49 49 47 43 39 37 36 35 35 36 38 38 37 36 34 33 33 32 30 29 31 32 34 35 37 38 37 37 36 36 35 36 37
61 56 58 60 62 66 67 65 65 63 61 59 55 54 55 56 58 60 60 60 60 61 61 59 58 58 60 61 62 62 62 62 60 58 56 49 40 39 44 47 48 50 51 52 51 52 53 53 53 52 51 51 51 49 46 43 39 36 36 36 37 37 38 38 37 37 37 36 35 32 29 29 31 34 36 37 37 38 37 36 35 35 35 35 36
59 54 59 70 73 76 74 67 64 59 57 58 57 57 59 61 63 63 63 62 62 62 61 61 62 63 63 62 61 62 62 61 59 57 56 53 48 45 45 43 43 46 49 51 52 53 53 53 52 52 51 51 50 48 46 43 41 38 37 37 37 36 37 38 38 38 38 38 35 32 30 29 31 34 37 38 39 38 37 36 35 35 35 37 38
57 57 63 72 76 78 76 71 65 59 56 57 57 59 61 64 66 65 64 63 63 62 63 65 66 65 63 61 61 61 60 58 58 57 55 55 56 57 57 54 49 48 48 50 52 53 52 52 51 50 48 48 48 46 44 43 41 40 39 38 36 35 36 38 39 39 40 39 35 33 31 30 31 33 36 39 39 39 38 36 35 35 36 38 39
52 57 61 66 71 76 77 76 72 67 64 61 60 63 65 66 66 65 64 63 63 64 65 66 66 63 61 61 61 61 59 58 59 58 57 56 55 57 59 60 57 54 53 51 50 51 52 51 50 47 45 45 46 44 42 41 41 41 40 38 36 35 36 37 39 40 39 38 36 34 31 31 32 32 35 37 39 40 40 38 35 34 35 37 39
50 52 56 62 68 72 73 75 74 70 67 64 64 65 66 67 68 67 66 65 66 66 65 65 63 61 59 60 61 61 60 60 61 60 58 56 54 53 52 53 55 57 58 56 53 52 52 51 48 44 43 45 44 42 42 42 42 41 39 38 37 35 35 36 38 39 39 38 37 35 33 32 32 33 35 37 39 40 40 38 33 31 32 34 38
51 49 53 60 65 66 64 63 65 65 64 63 63 63 64 65 66 66 66 66 66 65 64 63 61 60 60 61 62 63 63 63 63 61 59 57 55 53 50 49 51 54 56 56 55 54 52 49 46 43 44 46 45 42 42 43 44 42 40 39 37 34 34 35 36 38 39 39 39 37 35 34 33 34 37 37 39 39 39 38 33 28 27 29 33
50 49 51 57 59 58 56 55 57 58 59 59 60 61 62 63 63 64 65 65 64 62 61 60 60 62 64 64 65 65 65 65 64 62 60 59 57 54 53 52 51 49 49 49 50 50 49 47 45 45 46 48 48 44 42 44 45 43 41 40 38 35 32 33 35 37 40 39 40 39 36 35 34 35 37 38 39 40 39 37 35 32 28 27 28
48 48 46 47 49 49 51 53 54 54 56 57 57 58 58 58 58 58 59 59 59 58 58 59 61 63 65 66 66 66 66 65 64 62 61 58 56 53 52 52 52 50 48 48 48 48 48 47 46 47 49 51 52 49 45 45 44 41 40 39 37 35 33 33 35 37 40 39 38 39 36 36 35 35 38 39 41 42 41 39 37 35 32 29 27
46 45 36 37 43 47 51 53 53 53 52 51 49 49 48 48 49 50 53 54 56 58 59 61 62 64 66 66 66 66 64 63 62 60 58 56 53 51 50 50 51 51 50 50 50 50 48 47 47 46 48 52 53 52 48 45 44 41 41 40 37 36 35 35 36 39 41 39 38 38 37 37 35 35 38 41 42 44 43 41 39 37 34 30 28
47 44 30 34 45 48 51 52 52 52 50 49 47 47 46 46 48 49 52 55 57 59 61 63 64 65 65 65 64 62 60 58 57 55 54 52 50 48 48 48 49 49 49 50 50 50 48 47 47 45 45 48 49 50 49 47 47 47 46 44 41 39 39 39 39 40 40 38 37 37 38 37 36 34 37 41 43 45 45 43 41 39 35 32 29
52 48 32 33 44 44 46 47 47 47 47 49 49 49 49 50 51 52 54 56 58 60 61 62 63 63 63 62 59 56 54 53 51 51 49 48 47 47 46 47 48 47 47 49 50 50 49 48 47 45 44 45 45 45 46 47 49 49 49 48 47 44 43 42 40 38 38 37 36 37 38 38 36 34 36 41 44 46 46 45 42 40 37 33 30
55 55 44 37 39 38 37 39 41 42 43 45 47 49 49 50 51 52 54 56 57 58 59 59 59 60 58 55 52 49 48 48 47 47 46 45 45 44 45 46 47 48 48 49 51 51 49 49 47 45 44 43 43 43 42 43 44 45 45 46 47 48 47 45 42 39 38 38 37 37 37 37 35 33 35 40 44 46 46 45 43 41 38 33 30
53 58 57 47 40 38 34 35 39 41 44 46 47 48 47 47 48 50 53 55 55 56 56 57 55 52 50 47 45 43 43 43 43 43 43 43 42 42 44 45 47 49 50 51 53 53 51 51 51 49 46 44 44 43 41 41 43 42 41 42 45 47 47 47 46 42 38 38 39 38 36 35 34 33 34 38 42 46 46 45 44 42 38 32 29
53 57 63 58 47 43 40 38 41 45 48 50 51 51 49 48 49 50 53 54 55 55 54 52 48 44 42 41 40 39 39 39 39 40 41 40 40 41 42 45 47 50 51 52 55 56 56 55 55 54 51 48 47 45 42 42 44 43 40 39 41 41 42 44 45 42 37 37 39 38 35 34 34 33 34 37 41 45 46 45 44 43 39 34 31
55 56 62 63 54 49 48 45 47 50 52 53 54 54 53 53 53 54 54 55 54 53 50 47 43 40 39 39 38 37 36 36 36 37 37 38 38 39 40 43 47 50 53 53 55 58 58 57 56 56 56 56 53 50 47 44 44 43 39 37 36 35 36 39 39 38 36 37 39 38 35 34 34 34 35 38 41 45 45 45 46 45 43 40 36
54 55 60 64 61 57 54 52 53 55 56 55 55 56 57 57 57 57 56 55 52 49 47 44 42 40 39 38 36 36 35 34 34 34 34 35 36 37 38 41 44 49 53 56 57 59 61 61 61 61 61 61 59 56 51 46 42 40 39 37 36 35 35 37 38 37 37 39 40 39 37 34 33 34 35 39 43 45 46 46 47 47 45 43 41
51 52 55 61 65 64 62 61 61 60 58 56 54 54 55 56 56 56 55 53 51 49 47 44 41 39 39 38 36 35 33 33 32 32 32 33 33 35 36 39 41 45 48 52 55 58 60 61 62 61 60 59 59 57 53 48 41 39 40 39 39 39 37 38 39 39 39 41 42 40 38 36 34 34 35 38 43 46 47 47 48 47 44 43 43
51 52 53 56 62 66 67 67 65 63 60 56 53 52 52 53 54 54 54 54 53 51 49 45 41 39 39 39 37 36 34 32 32 31 31 31 32 33 34 36 38 41 44 46 49 51 53 54 54 54 54 54 55 54 53 50 44 41 41 40 42 43 41 40 40 41 41 42 43 41 39 38 37 36 35 37 41 44 46 48 48 47 45 43 44
52 53 55 56 59 62 65 66 64 62 59 56 53 53 53 54 54 53 55 57 56 55 52 47 42 39 39 39 39 37 35 34 32 31 30 30 31 32 33 34 36 38 40 42 43 45 46 47 48 48 49 50 50 51 51 53 50 46 43 41 43 45 44 42 40 42 42 42 43 42 40 39 38 38 37 37 39 42 44 45 45 46 45 44 45
52 54 56 58 59 60 62 63 63 61 59 56 55 55 56 56 56 55 56 58 58 57 53 48 43 40 40 41 40 38 37 36 34 32 31 30 30 30 31 32 34 35 37 38 40 41 41 42 43 43 44 45 46 47 48 52 54 52 48 44 43 44 44 43 40 41 42 42 43 43 42 41 40 39 39 39 39 41 42 43 42 42 42 43 45
50 53 55 57 58 60 61 62 63 62 60 58 57 58 58 59 59 58 57 58 60 58 53 48 44 41 42 43 41 39 38 38 37 35 33 31 30 29 30 31 32 33 34 35 36 37 38 39 39 39 40 41 42 43 44 47 50 52 54 53 51 48 47 45 43 42 42 43 43 44 44 44 42 41 40 40 39 39 40 42 42 41 40 41 44
47 49 52 54 56 58 60 62 63 63 63 62 62 61 60 60 59 58 57 58 58 54 51 47 43 42 44 44 41 40 39 39 38 37 35 34 32 30 29 30 30 31 32 33 34 35 36 36 37 37 37 38 39 40 42 43 45 48 53 57 58 54 51 49 46 43 43 43 43 44 45 44 43 42 41 39 39 39 39 41 43 42 42 41 42
46 48 50 51 54 56 58 60 62 63 63 62 62 60 58 57 57 57 56 54 51 48 46 45 44 45 44 41 40 40 39 39 39 38 37 36 34 33 31 30 30 30 31 32 33 34 35 35 36 36 37 37 38 38 39 40 42 44 47 52 55 53 51 51 49 44 42 42 43 44 45 45 44 43 42 40 39 40 40 42 43 44 44 42 42
45 47 49 50 51 52 53 56 58 59 59 59 57 57 56 54 53 51 49 46 43 42 43 44 44 43 40 37 36 37 38 39 39 39 38 38 37 35 33 32 31 30 31 32 32 33 34 35 35 35 36 36 36 37 37 38 39 41 43 45 49 51 51 52 51 48 45 43 43 44 45 47 46 43 42 42 41 41 42 42 44 46 47 45 44
Wind_Direction
289 289 289 290 290 290 291 291 292 292 292 292 293 294 295 295 296 297 297 298 298 299 299 299 299 299 298 298 299 298 297 297 298 298 299 299 300 301 301 301 302 303 302 301 302 302 302 302 303 303 304 304 305 305 306 306 305 305 306 305 304 303 302 302 301 301 302 301 299 297 296 296 296 294 291 291 292 289 282 276 271 269 267 263 256
287 288 288 289 289 289 290 290 291 291 292 293 294 294 295 295 296 296 297 297 297 298 298 298 297 297 296 296 297 296 296 297 298 299 299 300 300 300 300 301 302 301 301 301 301 302 302 302 302 303 303 304 305 305 305 305 305 305 305 304 303 302 301 300 300 301 300 299 297 295 294 294 293 290 289 290 288 283 279 273 269 268 266 261 254
285 286 287 288 288 289 290 291 292 293 293 294 294 294 294 294 295 295 295 295 295 296 296 295 295 295 295 295 295 295 295 296 298 299 299 299 300 300 300 300 300 300 300 300 301 301 301 302 302 302 302 303 304 304 304 304 304 304 304 303 301 300 299 299 300 300 299 297 295 294 293 291 289 287 287 287 283 278 275 269 267 267 264 259 251
285 286 287 288 289 291 292 293 293 294 294 293 293 293 292 292 293 293 294 293 293 293 293 293 293 294 294 294 294 295 295 296 297 298 298 298 299 300 299 299 299 299 299 300 300 301 301 302 302 302 302 303 303 303 303 303 304 303 302 302 300 299 298 299 300 299 297 295 294 293 291 288 286 285 284 281 277 274 270 266 265 265 263 258 250
285 286 287 289 291 292 294 294 294 293 292 291 291 291 290 291 291 293 293 292 292 292 292 291 291 293 293 294 295 295 295 296 297 297 297 298 299 299 299 298 299 299 298 299 300 300 301 302 301 301 301 302 302 302 302 302 302 302 301 300 298 297 298 299 298 296 294 292 291 289 286 283 283 282 279 274 270 269 267 264 263 262 260 256 250
286 287 289 290 292 293 294 293 292 292 290 289 288 288 288 289 291 293 294 294 294 293 293 292 291 292 293 295 295 296 296 297 297 298 298 299 299 299 298 298 298 298 298 299 299 300 301 301 301 300 300 301 301 301 301 301 301 301 300 299 297 297 297 297 295 293 291 289 286 282 281 280 279 277 272 268 266 263 263 262 261 259 257 254 249
288 289 290 290 292 294 294 295 295 294 291 288 287 287 287 288 290 293 296 296 295 295 295 294 292 292 293 296 297 298 299 300 299 299 299 300 300 298 297 297 297 297 298 299 299 300 301 300 299 299 300 301 300 300 300 300 299 299 298 297 297 296 295 294 292 290 288 284 279 278 280 279 274 270 265 264 263 260 260 259 257 254 251 250 249
292 291 291 292 295 296 297 298 299 297 294 293 293 292 290 289 290 294 296 296 295 294 294 294 294 294 295 298 300 301 302 302 300 300 299 300 299 297 296 296 295 296 298 298 299 299 300 299 298 299 300 300 300 300 300 298 298 298 297 296 295 294 292 291 289 289 287 279 276 279 281 278 271 264 259 259 260 258 257 256 253 249 246 249 252
291 288 288 290 291 292 293 293 295 298 298 298 299 298 294 291 292 295 296 295 294 293 293 293 294 295 298 300 301 302 301 300 299 299 300 299 297 295 295 295 295 295 297 298 299 299 299 298 298 299 299 299 300 299 298 297 297 296 296 294 292 290 289 288 289 289 284 275 276 280 280 276 268 261 256 255 256 255 254 252 246 241 241 248 256
285 281 282 282 283 285 287 287 289 294 297 298 297 297 296 291 291 294 294 294 293 293 293 293 294 296 297 298 300 300 299 298 298 298 298 297 295 293 294 295 295 294 296 298 299 299 298 297 298 298 298 299 299 298 297 296 295 295 294 291 289 288 287 287 288 287 280 274 278 281 278 273 267 261 256 253 252 251 250 247 239 233 236 247 255
282 278 278 279 282 285 284 285 287 290 293 291 289 292 295 290 290 293 294 295 293 293 293 293 294 295 296 296 297 299 299 297 296 296 296 295 293 291 293 295 295 295 296 297 298 298 297 297 298 298 299 300 298 296 295 294 294 294 291 288 287 286 285 287 286 283 277 274 280 281 277 271 264 260 256 253 250 246 245 242 234 228 232 244 253
283 280 279 280 282 284 282 282 285 287 288 284 284 288 290 287 287 290 292 293 292 291 291 291 292 294 295 295 296 297 297 296 294 294 293 293 291 290 293 294 294 295 296 296 297 297 297 297 298 299 299 298 297 295 294 293 292 291 288 287 287 286 286 284 281 278 275 275 280 281 276 268 262 258 254 252 248 243 240 235 230 227 230 241 251
284 283 283 282 282 282 280 280 281 284 284 282 283 286 287 284 283 285 287 289 290 289 289 289 290 292 293 293 295 295 295 294 292 292 292 291 290 290 292 294 295 295 296 296 296 297 297 297 299 299 298 297 295 294 293 292 290 288 286 287 288 287 285 280 277 277 275 275 279 280 274 266 259 256 251 248 246 241 237 233 228 229 234 240 247
284 284 285 285 284 282 280 279 280 280 280 282 284 285 286 284 283 284 286 289 288 287 287 287 288 290 290 292 293 293 293 292 291 292 292 291 290 290 292 294 294 295 295 296 296 297 297 298 298 297 296 295 295 293 291 290 287 286 287 289 288 286 282 277 276 277 275 275 279 279 272 264 258 255 250 246 243 238 233 230 229 232 236 240 244
284 285 285 285 284 282 281 280 280 278 278 282 284 285 285 285 285 286 287 287 286 286 287 287 289 290 290 291 291 291 291 290 291 292 291 290 290 291 293 293 294 294 295 296 296 297 298 297 296 295 295 295 294 291 289 287 285 286 291 291 288 285 279 276 278 278 276 277 279 278 271 264 259 254 248 244 241 237 232 227 231 237 239 242 246
283 284 284 284 283 282 282 281 280 279 278 280 281 283 283 284 285 286 286 285 285 286 287 288 289 289 289 290 289 289 289 290 290 290 289 290 292 292 293 293 293 294 295 296 297 297 296 295 294 294 294 293 292 290 287 283 283 290 294 292 288 283 277 276 278 279 277 277 278 277 271 265 260 255 247 241 239 238 235 227 227 237 241 243 246
282 282 283 283 283 282 282 281 281 280 279 279 280 281 281 282 284 285 285 285 285 286 287 287 288 288 288 288 288 288 289 289 288 288 289 291 291 291 293 293 294 294 295 296 296 295 294 294 293 293 293 292 290 286 282 280 286 294 296 293 287 279 275 275 277 279 278 278 278 276 271 265 262 256 246 240 237 235 236 230 223 229 237 240 242
282 282 283 283 283 282 282 282 282 281 281 281 281 281 281 282 283 284 284 284 285 285 286 287 287 287 287 286 287 288 288 287 286 287 289 289 287 290 293 293 293 294 295 295 294 294 293 292 292 291 292 292 288 281 276 280 289 296 296 293 285 276 273 274 276 279 279 279 279 275 270 266 263 254 244 238 236 234 234 231 223 222 231 238 239
282 282 283 283 283 283 283 283 283 283 282 282 281 281 282 283 284 284 284 284 285 285 286 286 286 286 285 286 286 286 286 285 286 288 289 286 285 290 294 293 292 292 293 293 293 292 291 291 290 290 292 291 284 275 275 283 291 296 296 290 281 273 272 274 278 281 282 282 280 274 269 267 262 251 241 236 234 233 231 229 224 221 225 232 236
282 283 283 284 284 284 284 284 283 283 282 281 282 282 284 285 285 284 284 284 285 285 284 285 285 285 285 285 285 284 283 285 287 287 286 282 285 291 292 291 291 291 290 291 291 289 289 288 287 289 291 286 278 272 276 285 292 295 293 284 275 271 271 276 280 282 284 282 278 272 269 266 259 248 240 236 234 233 230 226 224 223 223 225 229
283 283 284 284 284 284 284 284 283 282 282 282 282 283 284 284 284 283 283 284 283 283 283 284 284 284 284 284 283 282 283 286 287 286 282 281 285 289 290 289 288 288 288 288 288 287 287 285 285 287 287 279 272 271 276 286 292 293 288 278 271 271 273 277 280 283 283 281 276 271 268 264 256 247 239 235 234 233 230 225 222 223 225 225 226
283 284 285 286 285 284 282 282 282 282 283 283 283 284 284 283 282 282 282 282 282 282 282 283 283 283 284 283 282 282 285 287 286 285 283 282 285 287 288 287 285 286 285 284 285 284 283 284 284 284 282 273 268 271 277 286 291 290 283 274 271 272 273 276 280 283 282 280 275 270 267 263 256 247 239 234 234 233 229 225 222 221 223 225 226
285 287 287 286 283 281 280 279 280 281 282 283 283 283 282 281 281 281 281 281 281 281 281 282 283 283 284 284 283 284 286 286 286 286 285 284 285 286 286 283 281 283 282 281 281 280 281 282 280 279 278 270 267 270 277 286 289 286 279 271 270 271 273 276 280 282 280 278 274 271 267 264 258 248 240 235 234 231 226 223 223 221 221 221 222
286 288 287 282 279 280 280 280 279 281 282 283 284 284 282 280 279 280 280 280 280 280 280 281 282 283 284 285 285 286 286 286 286 287 287 286 286 285 282 279 280 281 279 279 278 277 279 279 276 276 277 272 269 271 277 285 287 282 275 268 268 270 273 276 280 279 278 276 273 272 269 265 259 250 242 237 235 232 226 222 222 223 223 222 221
280 283 283 279 279 279 278 281 284 284 285 284 285 285 282 279 278 279 279 279 281 281 280 280 282 284 284 285 286 287 288 288 288 288 289 289 288 285 281 278 279 278 277 278 277 277 278 277 276 277 278 275 273 275 281 285 283 277 271 267 267 269 272 276 278 276 275 273 270 271 272 267 260 252 244 239 236 232 227 222 221 222 223 225 225
269 270 277 283 284 280 277 281 285 285 285 285 285 284 281 278 277 277 278 280 281 282 282 282 282 283 283 284 285 288 289 289 289 290 290 290 288 285 281 278 277 276 276 277 277 277 276 274 275 276 276 274 274 278 282 282 278 275 270 268 267 268 271 275 275 272 271 272 271 273 274 269 262 253 245 240 236 231 226 223 222 221 223 225 226
263 258 266 279 282 279 278 279 279 279 281 283 280 277 276 277 278 279 279 279 281 283 284 282 281 281 282 284 286 288 289 290 291 290 289 288 286 282 277 275 275 275 275 275 276 275 272 271 272 273 272 272 276 279 278 276 275 275 272 270 268 268 270 272 273 270 270 273 273 274 274 269 261 252 243 238 236 233 228 224 222 221 222 222 223
263 254 252 261 266 270 273 274 274 276 279 278 273 270 272 276 280 282 281 280 282 283 282 281 280 282 283 285 287 288 289 290 291 290 287 285 279 275 273 272 273 273 273 273 273 271 269 269 271 272 273 274 277 276 272 272 273 273 270 270 270 269 269 271 272 270 270 273 273 272 273 267 259 252 243 235 232 231 227 225 224 223 222 219 218
259 251 244 248 254 262 266 269 273 277 278 273 268 267 271 276 281 282 281 281 282 282 281 280 282 284 286 287 287 289 290 290 290 288 284 281 274 269 269 270 271 271 270 270 270 269 268 268 270 273 274 275 274 271 269 271 272 269 267 269 269 268 269 272 271 269 271 273 269 269 270 265 258 252 246 238 230 227 224 224 226 226 225 220 218
256 249 243 244 249 256 261 265 269 273 275 270 266 270 274 278 281 281 280 279 279 279 280 282 284 286 287 287 289 290 291 290 288 285 281 279 275 271 269 269 270 269 267 268 267 266 266 268 271 272 272 271 269 267 268 271 270 269 268 268 266 265 268 270 270 271 273 271 266 268 269 261 255 250 246 242 233 226 221 222 227 229 229 226 224
256 252 248 247 249 252 256 261 265 269 270 268 269 275 279 281 281 281 279 278 279 281 283 284 286 288 288 289 291 291 291 289 287 285 284 282 279 274 270 268 266 265 267 268 266 265 265 268 270 269 267 265 263 264 267 268 267 268 269 267 265 265 265 266 270 272 271 268 266 269 268 259 251 245 242 240 235 228 221 221 226 231 234 232 230
255 253 252 251 251 252 255 258 260 264 267 268 272 276 277 279 280 281 281 281 283 284 285 287 288 288 290 290 291 291 291 290 289 288 286 283 278 273 269 267 264 262 265 265 264 266 268 268 267 265 264 261 259 262 264 264 264 265 267 267 267 265 262 265 269 269 267 267 268 270 267 258 248 241 237 234 233 228 222 220 222 229 236 236 235
254 250 248 249 251 253 256 257 258 262 267 270 273 275 276 277 279 281 282 284 285 285 286 287 288 289 290 291 291 292 292 291 291 290 287 282 277 271 266 267 265 264 264 264 264 266 267 267 264 261 261 259 258 261 262 262 262 262 265 267 266 263 262 266 267 265 267 270 272 271 266 258 245 238 235 230 227 225 221 217 213 216 228 236 239
250 247 244 246 248 249 253 258 262 265 269 271 273 274 276 277 279 281 282 283 284 285 286 287 288 289 290 291 292 292 292 291 290 289 286 282 277 271 266 265 265 265 264 264 266 266 264 263 261 259 258 259 260 261 260 259 259 261 264 265 265 263 261 261 263 265 269 273 274 270 263 256 244 236 235 230 224 221 217 214 210 208 214 227 236
246 243 240 241 245 249 253 258 264 268 270 272 274 274 275 276 277 279 280 282 284 285 287 287 289 290 290 291 291 291 291 290 289 287 283 279 275 270 266 263 263 263 261 260 262 264 264 263 261 260 258 258 260 261 260 257 256 259 261 262 262 262 258 257 261 264 268 271 273 267 259 254 246 237 234 231 225 220 215 214 213 209 209 216 226
240 236 237 243 246 251 254 258 263 268 271 270 271 271 272 274 275 277 280 281 284 286 287 288 289 289 290 291 291 291 290 289 287 284 279 275 271 268 266 263 261 260 258 257 259 260 263 264 262 260 258 258 259 260 259 254 252 254 257 259 258 258 258 259 261 264 267 270 270 263 255 252 247 237 233 231 227 222 217 216 217 214 210 211 219
233 227 233 249 247 250 254 257 263 266 267 266 266 267 268 271 274 276 279 282 284 287 288 289 289 290 290 291 290 290 289 287 284 280 276 273 271 268 265 262 259 257 256 257 258 257 259 260 260 261 259 259 259 258 256 253 253 255 255 255 254 254 257 259 261 266 268 268 266 258 252 250 246 237 232 231 229 224 221 220 220 219 214 211 216
228 220 220 240 243 248 253 256 262 264 265 265 265 267 269 271 274 277 280 283 286 287 289 290 291 291 290 290 290 289 287 284 281 277 274 272 270 268 265 262 258 254 252 254 255 255 256 257 257 258 258 258 257 258 257 254 254 256 255 252 251 252 254 255 260 265 265 263 260 253 248 247 245 238 231 230 229 226 223 223 223 222 218 215 217
226 220 216 227 236 241 250 256 262 265 268 269 269 271 274 277 279 281 283 285 287 288 289 291 291 291 290 289 288 287 285 283 280 277 274 271 269 266 263 260 256 251 249 249 252 253 254 255 254 254 256 257 257 258 260 256 254 255 253 250 249 250 251 252 257 261 259 258 254 248 247 245 242 238 232 230 229 226 224 224 224 222 220 219 221
227 223 221 226 234 238 246 258 264 268 271 273 274 276 279 283 285 287 287 287 288 288 290 290 290 290 290 289 287 286 284 283 281 278 275 272 269 266 262 259 255 251 248 246 248 250 251 253 254 255 255 255 257 258 260 258 254 254 254 250 248 250 252 252 255 257 256 256 251 245 244 242 239 237 233 231 228 224 224 224 224 222 220 221 224
227 226 225 228 237 241 247 259 264 267 270 270 274 276 279 282 284 286 288 288 289 289 289 288 288 289 289 289 288 286 285 283 282 280 277 274 270 266 262 258 255 252 249 246 246 248 250 252 253 255 255 255 257 258 259 260 256 254 255 252 249 250 253 255 254 253 253 252 248 244 243 239 235 234 233 230 225 222 223 224 223 222 221 220 222
230 230 228 230 238 243 249 260 264 267 270 271 273 274 275 276 277 280 283 287 288 288 288 289 289 288 287 288 288 288 287 285 284 281 279 277 273 268 263 259 255 252 250 248 247 247 250 252 253 255 257 257 259 258 259 263 258 252 251 250 247 246 249 252 251 249 249 246 242 242 242 239 235 233 232 228 222 221 222 223 223 223 224 224 223
233 234 233 233 237 242 250 259 265 269 273 275 276 275 274 272 273 276 279 283 285 285 288 290 291 290 289 287 287 288 290 289 287 285 282 279 276 271 266 262 257 254 251 250 250 249 251 253 255 258 259 258 259 259 259 260 256 249 248 245 241 239 243 248 249 247 244 240 238 239 240 241 239 235 232 228 222 221 222 224 224 226 229 231 230
236 237 237 237 238 242 249 257 263 269 273 276 278 278 276 274 274 276 278 282 282 282 286 288 288 290 291 289 288 288 290 292 291 289 286 282 278 274 269 265 261 258 255 254 253 253 253 255 257 258 258 257 257 257 256 253 249 246 245 242 236 236 239 244 247 247 243 238 236 236 237 239 240 239 234 229 226 224 225 226 227 229 233 236 237
239 239 239 239 240 243 248 254 260 266 270 274 276 277 277 276 276 276 278 281 280 280 284 284 284 287 291 290 288 287 288 290 292 292 290 286 282 278 273 268 265 262 260 258 257 256 256 256 257 258 257 256 255 255 252 246 242 242 240 237 235 234 235 238 243 246 244 238 236 236 236 237 238 239 236 231 228 227 229 231 232 235 237 239 239
239 240 241 241 242 244 249 254 259 264 268 272 273 274 275 276 276 276 278 279 279 280 282 282 281 285 290 290 287 286 286 286 288 290 290 288 285 281 277 272 268 265 262 261 260 259 258 257 257 257 257 256 254 253 249 243 239 237 233 231 233 235 235 237 240 244 244 240 236 236 236 236 236 237 238 235 230 229 230 233 237 239 242 241 237
239 241 242 243 244 246 250 255 259 264 268 270 272 273 274 275 276 276 278 278 278 280 281 282 281 283 290 291 287 285 284 283 284 285 286 286 285 283 279 276 272 269 265 264 262 261 261 260 258 258 257 256 255 253 250 244 241 238 231 228 231 235 237 239 241 242 243 241 238 237 236 235 235 236 238 239 236 233 232 233 237 239 241 241 237
243 243 244 245 247 249 252 256 260 263 267 270 271 273 274 276 276 277 278 277 278 279 281 282 282 283 289 290 286 283 282 282 282 282 282 283 283 282 281 279 275 272 269 266 264 263 262 261 260 259 257 256 255 254 252 248 246 241 235 232 235 238 240 241 241 240 240 239 239 238 238 236 235 234 235 238 240 239 237 236 238 240 240 240 238
247 248 248 248 249 251 254 257 259 262 265 268 271 273 274 276 277 277 276 276 276 278 281 282 281 283 288 287 283 281 279 279 279 280 280 280 281 281 280 279 277 274 271 268 266 264 263 262 261 259 257 256 255 254 253 251 249 245 240 238 241 244 242 239 238 238 237 237 239 240 240 238 236 235 234 235 238 240 240 240 240 241 241 240 240
250 251 250 250 250 252 254 257 259 262 265 267 270 271 272 274 276 276 274 274 276 279 282 283 283 285 286 282 280 279 276 276 276 276 278 278 279 280 279 278 276 274 272 268 266 264 262 261 260 259 258 256 255 253 253 252 250 249 245 242 242 243 240 235 233 234 234 235 237 240 241 239 237 237 238 236 236 237 238 240 241 243 244 242 242
250 250 251 252 252 252 255 258 261 263 265 267 268 269 269 271 273 274 274 274 276 281 283 283 283 285 283 280 279 278 275 274 273 274 275 276 277 278 279 279 277 274 272 269 267 265 263 262 260 260 259 258 257 255 252 251 250 249 248 245 242 240 237 234 232 233 233 231 232 235 239 240 237 237 239 241 240 239 238 238 240 242 244 243 242
Height
10891 10889 10889 10889 10889 10889 10888 10888 10886 10884 10882 10879 10877 10875 10873 10872 10872 10872 10872 10871 10871 10871 10870 10870 10869 10869 10868 10867 10865 10864 10863 10862 10861 10860 10860 10860 10859 10857 10855 10854 10853 10852 10850 10848 10847 10846 10844 10843 10842 10841 10840 10840 10839 10839 10838 10836 10833 10831 10828 10826 10824 10822 10820 10818 10817 10815 10813 10812 10811 10810 10809 10808 10807 10805 10805 10804 10804 10804 10804 10804 10804 10803 10803 10803 10803
10888 10884 10882 10883 10883 10883 10883 10882 10881 10879 10877 10874 10872 10870 10869 10867 10867 10867 10866 10866 10866 10866 10865 10865 10864 10863 10862 10861 10860 10859 10858 10857 10856 10855 10855 10854 10854 10852 10851 10849 10848 10847 10845 10844 10842 10841 10839 10838 10837 10837 10836 10836 10835 10834 10833 10831 10829 10826 10824 10822 10819 10817 10816 10814 10812 10811 10810 10808 10808 10807 10806 10805 10804 10803 10802 10802 10802 10802 10802 10802 10801 10801 10801 10801 10801
10885 10881 10877 10877 10877 10878 10878 10877 10876 10874 10872 10869 10867 10865 10863 10862 10861 10861 10861 10861 10860 10860 10860 10860 10859 10858 10856 10855 10854 10854 10853 10852 10851 10850 10849 10849 10849 10848 10846 10844 10843 10842 10840 10839 10837 10836 10835 10834 10833 10832 10831 10831 10831 10830 10828 10826 10824 10822 10820 10817 10815 10813 10811 10809 10808 10807 10806 10805 10805 10805 10804 10802 10801 10800 10799 10799 10799 10799 10799 10799 10799 10799 10799 10799 10800
10879 10877 10874 10872 10872 10873 10873 10872 10871 10869 10866 10863 10861 10859 10857 10856 10855 10855 10855 10855 10854 10854 10854 10854 10853 10852 10850 10849 10849 10849 10848 10847 10846 10845 10843 10843 10843 10843 10841 10840 10838 10837 10836 10834 10833 10831 10830 10829 10828 10827 10827 10826 10826 10825 10823 10821 10819 10817 10815 10813 10810 10808 10806 10805 10804 10803 10802 10802 10802 10802 10801 10800 10798 10797 10797 10797 10797 10797 10797 10797 10797 10797 10797 10798 10798
10873 10871 10870 10868 10867 10868 10868 10867 10865 10863 10860 10857 10855 10853 10851 10850 10849 10849 10849 10849 10848 10848 10848 10848 10847 10846 10844 10844 10844 10844 10843 10843 10842 10840 10838 10837 10838 10837 10836 10835 10833 10832 10831 10829 10828 10827 10826 10825 10823 10823 10822 10822 10821 10820 10818 10816 10814 10812 10811 10808 10806 10804 10802 10801 10801 10800 10799 10799 10799 10798 10797 10797 10796 10795 10794 10794 10794 10794 10794 10794 10795 10795 10795 10796 10796
10868 10866 10865 10864 10862 10862 10862 10860 10859 10856 10853 10850 10848 10847 10846 10845 10845 10844 10844 10843 10843 10842 10842 10842 10841 10840 10839 10839 10839 10839 10838 10838 10837 10836 10834 10833 10832 10832 10831 10830 10828 10827 10826 10825 10823 10822 10821 10820 10819 10818 10817 10817 10816 10814 10812 10811 10809 10808 10806 10804 10802 10799 10798 10797 10797 10796 10796 10796 10796 10794 10794 10793 10793 10792 10791 10791 10791 10791 10792 10792 10793 10793 10793 10794 10794
10863 10861 10859 10858 10857 10856 10856 10854 10852 10849 10845 10843 10841 10841 10840 10840 10840 10839 10838 10837 10837 10837 10837 10836 10835 10834 10833 10833 10834 10834 10834 10834 10833 10832 10830 10829 10828 10827 10826 10824 10823 10822 10821 10820 10819 10818 10817 10815 10814 10813 10812 10812 10811 10809 10807 10806 10804 10803 10802 10800 10798 10795 10794 10793 10793 10793 10793 10793 10792 10791 10791 10791 10790 10789 10789 10789 10789 10789 10789 10790 10790 10791 10792 10792 10793
10857 10853 10852 10850 10851 10851 10850 10849 10847 10844 10840 10838 10837 10836 10835 10835 10835 10834 10833 10832 10832 10832 10831 10830 10830 10829 10828 10828 10829 10830 10830 10830 10829 10828 10827 10826 10824 10822 10821 10819 10818 10817 10816 10815 10814 10813 10812 10810 10809 10807 10807 10806 10805 10803 10802 10801 10799 10799 10798 10795 10793 10791 10790 10789 10789 10789 10790 10790 10789 10788 10788 10788 10787 10787 10787 10786 10786 10786 10787 10787 10788 10789 10790 10790 10791
10853 10846 10846 10845 10845 10845 10844 10844 10842 10840 10837 10835 10834 10832 10831 10830 10830 10829 10828 10828 10827 10827 10826 10825 10824 10824 10823 10823 10824 10825 10825 10825 10824 10824 10823 10821 10819 10817 10815 10814 10813 10812 10810 10810 10809 10808 10806 10805 10803 10802 10801 10801 10800 10798 10797 10796 10795 10795 10793 10791 10789 10787 10786 10786 10786 10786 10787 10787 10786 10785 10784 10784 10785 10785 10784 10784 10784 10784 10784 10785 10786 10787 10788 10788 10789
10852 10841 10838 10839 10839 10839 10839 10838 10837 10835 10833 10832 10830 10829 10827 10826 10825 10825 10824 10823 10823 10822 10821 10820 10819 10819 10819 10819 10819 10820 10819 10819 10819 10818 10817 10816 10814 10812 10810 10808 10807 10806 10805 10804 10804 10803 10801 10799 10798 10797 10796 10796 10795 10793 10792 10791 10790 10790 10789 10787 10785 10784 10783 10783 10783 10783 10783 10784 10783 10782 10781 10781 10782 10782 10782 10781 10781 10781 10781 10782 10783 10784 10785 10786 10787
10846 10836 10831 10832 10834 10834 10834 10833 10830 10829 10828 10827 10825 10824 10824 10823 10821 10820 10819 10819 10818 10817 10816 10814 10813 10813 10814 10814 10814 10813 10813 10813 10813 10812 10811 10810 10808 10807 10805 10803 10802 10800 10800 10799 10798 10798 10796 10794 10793 10792 10792 10791 10790 10788 10787 10787 10786 10786 10784 10783 10782 10780 10779 10779 10780 10780 10780 10780 10780 10779 10779 10778 10779 10779 10779 10779 10779 10779 10779 10779 10780 10781 10783 10784 10785
10834 10828 10825 10827 10830 10830 10829 10826 10823 10822 10821 10820 10819 10819 10821 10819 10817 10815 10814 10814 10813 10812 10809 10807 10807 10807 10808 10809 10808 10807 10807 10807 10806 10806 10805 10804 10803 10801 10799 10798 10796 10795 10794 10793 10793 10793 10791 10789 10788 10787 10787 10786 10786 10784 10783 10783 10782 10782 10781 10780 10779 10777 10776 10776 10777 10777 10777 10777 10777 10776 10776 10775 10776 10776 10777 10776 10776 10776 10776 10777 10778 10779 10780 10781 10782
10825 10819 10817 10822 10825 10824 10822 10819 10817 10816 10814 10813 10813 10813 10814 10814 10812 10810 10809 10808 10808 10806 10803 10802 10802 10802 10803 10804 10803 10802 10801 10801 10800 10800 10798 10797 10796 10795 10794 10793 10791 10789 10789 10788 10788 10787 10786 10784 10784 10783 10782 10782 10782 10780 10778 10779 10778 10778 10778 10777 10775 10774 10772 10772 10774 10774 10774 10773 10773 10773 10772 10772 10773 10773 10773 10774 10774 10773 10773 10774 10774 10776 10777 10779 10780
10819 10813 10811 10816 10818 10816 10814 10812 10811 10810 10807 10806 10805 10806 10806 10806 10805 10804 10803 10802 10800 10798 10796 10796 10797 10798 10799 10798 10797 10796 10795 10795 10794 10793 10792 10790 10789 10788 10788 10787 10785 10784 10783 10783 10783 10782 10781 10780 10779 10778 10778 10778 10778 10776 10775 10775 10775 10775 10775 10773 10772 10770 10768 10769 10771 10772 10771 10770 10770 10770 10769 10768 10769 10769 10770 10770 10771 10770 10770 10771 10771 10773 10774 10776 10777
10813 10808 10807 10809 10808 10806 10805 10805 10805 10803 10800 10798 10797 10797 10797 10798 10798 10798 10797 10794 10791 10789 10789 10790 10792 10793 10793 10792 10791 10790 10789 10789 10788 10787 10785 10784 10783 10782 10782 10782 10780 10779 10778 10778 10778 10777 10776 10775 10774 10773 10773 10773 10773 10772 10771 10771 10772 10772 10772 10770 10769 10767 10765 10765 10768 10769 10768 10767 10766 10766 10765 10765 10765 10766 10766 10767 10768 10768 10767 10768 10769 10770 10771 10773 10774
10808 10804 10802 10801 10799 10798 10796 10796 10796 10795 10793 10792 10790 10789 10789 10790 10791 10791 10789 10786 10783 10782 10782 10784 10786 10787 10786 10785 10784 10784 10783 10782 10782 10781 10780 10779 10778 10777 10776 10776 10775 10774 10773 10773 10773 10772 10771 10771 10770 10769 10769 10769 10769 10769 10768 10768 10769 10769 10768 10767 10766 10764 10761 10762 10765 10765 10765 10764 10763 10762 10761 10761 10762 10762 10762 10763 10764 10765 10764 10764 10765 10766 10768 10769 10771
10801 10798 10796 10794 10792 10790 10787 10786 10786 10786 10785 10784 10783 10783 10783 10784 10784 10783 10780 10777 10776 10776 10776 10778 10779 10779 10778 10778 10778 10778 10777 10776 10776 10775 10775 10774 10773 10772 10771 10771 10770 10769 10768 10768 10768 10767 10767 10767 10766 10765 10765 10765 10765 10765 10765 10765 10765 10766 10765 10764 10763 10761 10758 10759 10761 10762 10762 10761 10759 10758 10758 10758 10758 10759 10759 10759 10760 10761 10761 10761 10762 10763 10765 10766 10768
10794 10791 10788 10786 10784 10781 10779 10777 10777 10776 10775 10775 10775 10776 10777 10778 10777 10774 10771 10770 10770 10770 10770 10771 10772 10772 10772 10772 10772 10772 10770 10770 10770 10770 10770 10769 10769 10767 10766 10766 10765 10764 10764 10763 10763 10763 10762 10762 10761 10761 10761 10760 10761 10761 10761 10761 10762 10763 10762 10762 10760 10757 10755 10755 10757 10758 10758 10758 10756 10754 10754 10754 10755 10755 10755 10756 10757 10758 10758 10758 10759 10760 10761 10763 10765
10786 10784 10781 10778 10775 10772 10770 10769 10768 10767 10766 10766 10767 10768 10770 10770 10769 10766 10763 10764 10764 10763 10763 10764 10765 10765 10765 10765 10766 10765 10765 10764 10764 10764 10764 10764 10764 10763 10761 10760 10760 10760 10759 10759 10759 10758 10758 10758 10757 10757 10757 10756 10757 10757 10758 10758 10758 10759 10759 10759 10758 10754 10751 10752 10754 10755 10755 10755 10753 10751 10751 10751 10751 10751 10751 10752 10753 10754 10755 10755 10756 10757 10758 10760 10762
10780 10778 10774 10770 10766 10763 10761 10760 10758 10757 10758 10759 10760 10762 10762 10762 10760 10757 10756 10757 10758 10756 10756 10757 10758 10758 10758 10758 10759 10759 10759 10759 10759 10759 10760 10760 10759 10758 10757 10755 10755 10755 10754 10754 10754 10753 10753 10753 10753 10754 10754 10753 10753 10754 10754 10754 10755 10755 10756 10756 10755 10752 10748 10748 10750 10751 10751 10751 10750 10747 10747 10748 10748 10748 10748 10748 10749 10750 10751 10751 10752 10754 10755 10756 10758
10774 10772 10767 10762 10759 10755 10752 10750 10749 10749 10750 10752 10753 10755 10755 10755 10752 10749 10749 10750 10751 10750 10750 10751 10752 10751 10751 10752 10753 10753 10753 10753 10753 10754 10755 10755 10755 10754 10753 10751 10750 10750 10750 10749 10749 10749 10749 10749 10749 10750 10750 10750 10749 10750 10750 10750 10751 10752 10752 10753 10752 10749 10745 10744 10746 10747 10747 10748 10747 10744 10743 10744 10745 10745 10745 10745 10746 10746 10747 10748 10749 10750 10752 10754 10755
10766 10764 10759 10754 10750 10746 10742 10740 10740 10741 10743 10744 10746 10748 10749 10747 10744 10742 10742 10744 10744 10743 10743 10745 10745 10745 10745 10746 10747 10747 10747 10747 10747 10749 10750 10750 10750 10750 10749 10747 10746 10746 10745 10745 10744 10744 10744 10744 10744 10745 10746 10746 10745 10745 10746 10746 10747 10748 10748 10749 10749 10746 10742 10740 10742 10743 10744 10744 10744 10742 10740 10741 10742 10742 10742 10743 10743 10743 10744 10745 10746 10747 10749 10751 10752
10757 10755 10749 10743 10739 10735 10733 10732 10733 10735 10736 10738 10740 10742 10742 10740 10737 10736 10736 10737 10737 10737 10737 10739 10739 10740 10740 10740 10741 10741 10741 10741 10742 10743 10745 10745 10745 10744 10744 10743 10742 10741 10740 10740 10740 10739 10738 10738 10739 10740 10741 10740 10740 10740 10741 10743 10744 10744 10745 10745 10745 10743 10738 10737 10738 10739 10740 10741 10741 10740 10738 10738 10739 10739 10739 10740 10740 10740 10741 10742 10743 10744 10746 10747 10749
10750 10745 10739 10733 10730 10727 10727 10727 10727 10729 10731 10732 10734 10735 10734 10732 10731 10730 10730 10730 10731 10732 10732 10733 10734 10734 10734 10734 10734 10734 10735 10736 10737 10738 10739 10739 10739 10739 10739 10738 10737 10736 10735 10735 10735 10734 10733 10733 10733 10735 10735 10735 10735 10736 10737 10739 10740 10740 10741 10741 10741 10739 10735 10734 10735 10735 10736 10737 10738 10737 10736 10736 10736 10736 10736 10737 10737 10737 10738 10739 10740 10741 10743 10744 10745
10748 10737 10728 10723 10721 10721 10722 10722 10722 10724 10725 10726 10727 10728 10727 10725 10725 10725 10724 10724 10725 10726 10727 10727 10728 10729 10729 10729 10729 10728 10729 10731 10732 10734 10734 10734 10733 10733 10732 10732 10731 10730 10729 10730 10729 10728 10728 10728 10729 10730 10731 10731 10731 10731 10733 10734 10735 10736 10737 10737 10737 10735 10731 10730 10731 10731 10732 10734 10734 10734 10734 10733 10733 10734 10734 10734 10735 10735 10735 10735 10736 10738 10740 10742 10743
10745 10736 10724 10715 10713 10714 10716 10717 10717 10718 10719 10720 10721 10721 10720 10719 10719 10719 10719 10719 10720 10721 10722 10723 10723 10723 10723 10723 10723 10723 10724 10726 10727 10729 10729 10728 10727 10727 10725 10724 10723 10723 10724 10724 10723 10723 10724 10725 10725 10725 10725 10726 10726 10726 10727 10729 10731 10731 10732 10733 10734 10731 10728 10726 10727 10727 10729 10730 10731 10731 10731 10730 10730 10730 10731 10731 10732 10732 10732 10732 10733 10735 10737 10739 10741
10738 10738 10731 10717 10708 10709 10711 10711 10712 10713 10714 10715 10715 10715 10714 10713 10713 10714 10714 10714 10715 10716 10717 10717 10717 10717 10718 10718 10718 10718 10719 10720 10723 10723 10724 10724 10721 10718 10717 10715 10716 10717 10717 10717 10718 10719 10720 10720 10720 10720 10720 10721 10721 10721 10722 10724 10726 10727 10728 10729 10730 10728 10724 10722 10723 10723 10725 10726 10727 10727 10727 10727 10727 10727 10727 10727 10728 10729 10729 10730 10731 10732 10734 10736 10739
10729 10737 10737 10720 10707 10705 10704 10705 10707 10708 10709 10709 10709 10708 10707 10707 10708 10709 10710 10710 10710 10710 10710 10711 10711 10712 10712 10713 10712 10712 10713 10714 10716 10716 10717 10719 10716 10710 10707 10707 10708 10710 10711 10711 10713 10714 10714 10714 10714 10715 10715 10716 10716 10716 10716 10718 10721 10723 10724 10725 10726 10724 10720 10719 10719 10719 10720 10722 10722 10722 10723 10723 10723 10723 10723 10723 10724 10726 10727 10727 10729 10730 10731 10733 10736
10720 10727 10727 10714 10705 10702 10700 10702 10703 10703 10703 10703 10702 10701 10701 10702 10703 10704 10705 10706 10705 10705 10704 10704 10705 10706 10707 10707 10707 10707 10707 10708 10709 10708 10708 10709 10709 10704 10699 10699 10702 10704 10704 10705 10706 10707 10707 10708 10709 10710 10711 10710 10711 10711 10711 10712 10715 10717 10719 10720 10721 10720 10717 10715 10715 10715 10716 10716 10718 10718 10718 10719 10719 10719 10719 10720 10720 10722 10723 10725 10726 10727 10729 10730 10732
10711 10713 10711 10705 10703 10700 10696 10698 10698 10699 10699 10697 10697 10696 10696 10697 10698 10699 10700 10701 10700 10700 10699 10698 10699 10700 10701 10702 10702 10702 10701 10700 10699 10698 10699 10700 10700 10697 10694 10695 10698 10698 10698 10699 10699 10700 10702 10703 10704 10705 10705 10704 10705 10705 10706 10707 10709 10711 10713 10715 10717 10716 10714 10711 10710 10711 10711 10711 10713 10714 10714 10714 10715 10716 10716 10717 10717 10718 10719 10721 10723 10724 10726 10728 10730
10703 10703 10701 10701 10700 10696 10693 10693 10693 10694 10694 10694 10693 10692 10692 10691 10692 10693 10695 10695 10694 10694 10693 10692 10693 10694 10695 10696 10696 10696 10695 10692 10689 10688 10690 10692 10692 10691 10690 10690 10692 10692 10692 10693 10693 10694 10696 10697 10698 10699 10700 10700 10700 10700 10701 10701 10702 10705 10707 10710 10712 10712 10711 10708 10706 10705 10706 10707 10708 10710 10710 10710 10710 10711 10713 10714 10715 10715 10716 10718 10720 10722 10723 10725 10727
10696 10697 10697 10696 10693 10690 10689 10689 10689 10690 10689 10690 10690 10689 10688 10687 10687 10688 10689 10690 10689 10688 10688 10687 10687 10688 10689 10689 10689 10689 10687 10684 10681 10682 10684 10685 10684 10683 10683 10684 10685 10685 10685 10686 10688 10689 10690 10691 10693 10694 10695 10695 10695 10696 10696 10696 10697 10699 10701 10703 10706 10708 10706 10704 10702 10701 10701 10702 10704 10705 10705 10705 10706 10707 10708 10710 10712 10713 10713 10714 10717 10719 10721 10722 10724
10689 10693 10693 10689 10686 10685 10685 10686 10686 10686 10686 10686 10685 10685 10684 10684 10684 10683 10684 10684 10683 10683 10682 10682 10681 10682 10683 10683 10682 10681 10679 10676 10675 10676 10676 10677 10676 10676 10677 10677 10678 10677 10677 10679 10681 10683 10684 10686 10688 10689 10690 10690 10691 10691 10691 10692 10693 10694 10696 10697 10700 10702 10702 10700 10699 10698 10698 10698 10699 10700 10701 10701 10702 10702 10704 10706 10708 10710 10710 10711 10712 10714 10717 10719 10720
10682 10685 10686 10684 10681 10680 10681 10681 10682 10682 10681 10680 10680 10680 10680 10680 10680 10679 10678 10677 10677 10676 10676 10677 10676 10675 10676 10676 10676 10674 10671 10669 10669 10670 10669 10668 10668 10669 10670 10671 10672 10671 10671 10673 10674 10676 10679 10681 10683 10685 10685 10685 10686 10687 10687 10688 10688 10689 10690 10692 10694 10696 10697 10696 10696 10695 10694 10695 10695 10695 10696 10697 10698 10698 10699 10702 10704 10706 10707 10708 10708 10709 10711 10714 10716
10675 10676 10679 10679 10677 10676 10677 10677 10676 10676 10676 10675 10675 10675 10675 10675 10674 10673 10673 10671 10670 10670 10670 10671 10671 10669 10669 10670 10670 10668 10665 10663 10663 10663 10662 10661 10661 10661 10662 10664 10666 10666 10667 10668 10669 10671 10673 10676 10678 10679 10680 10680 10680 10682 10683 10684 10684 10684 10685 10687 10689 10690 10691 10692 10692 10692 10691 10691 10691 10690 10691 10692 10694 10695 10696 10698 10700 10701 10703 10704 10705 10705 10707 10709 10712
10668 10670 10673 10672 10671 10671 10671 10671 10671 10670 10670 10670 10669 10669 10669 10669 10668 10667 10666 10665 10664 10663 10663 10664 10665 10665 10664 10664 10663 10662 10660 10657 10656 10655 10655 10654 10654 10654 10656 10657 10659 10660 10661 10663 10664 10666 10667 10669 10671 10673 10674 10674 10674 10676 10679 10680 10680 10679 10680 10682 10684 10685 10686 10688 10689 10688 10687 10687 10687 10687 10687 10688 10690 10691 10692 10694 10696 10698 10699 10700 10702 10703 10704 10705 10707
10661 10663 10666 10664 10663 10663 10664 10664 10664 10663 10664 10663 10663 10663 10663 10662 10662 10661 10661 10660 10659 10658 10657 10657 10658 10659 10659 10658 10657 10656 10653 10651 10649 10648 10647 10647 10646 10647 10649 10651 10652 10653 10655 10657 10659 10661 10662 10664 10665 10667 10668 10668 10669 10671 10674 10676 10675 10674 10675 10678 10680 10681 10682 10684 10685 10683 10682 10683 10684 10683 10684 10684 10685 10687 10689 10691 10692 10694 10696 10697 10699 10701 10701 10702 10703
10653 10656 10656 10653 10654 10656 10657 10657 10656 10656 10656 10655 10656 10656 10656 10656 10656 10656 10656 10655 10654 10653 10653 10652 10652 10652 10653 10652 10650 10648 10646 10645 10643 10642 10642 10642 10642 10642 10643 10645 10646 10648 10650 10652 10653 10655 10657 10658 10659 10661 10662 10663 10665 10666 10667 10669 10670 10669 10670 10673 10676 10677 10677 10679 10680 10680 10677 10678 10680 10680 10680 10680 10681 10683 10685 10686 10688 10690 10692 10694 10696 10698 10699 10699 10699
10647 10650 10648 10645 10646 10649 10650 10651 10650 10649 10649 10647 10648 10649 10648 10648 10649 10650 10650 10650 10650 10649 10649 10648 10647 10646 10646 10645 10644 10642 10640 10638 10637 10637 10637 10637 10638 10638 10638 10639 10640 10642 10645 10647 10648 10649 10651 10652 10653 10654 10655 10658 10660 10661 10662 10663 10664 10664 10665 10668 10670 10672 10673 10674 10675 10676 10674 10674 10676 10677 10677 10677 10678 10679 10681 10682 10684 10686 10689 10690 10692 10694 10695 10696 10697
10644 10647 10644 10641 10642 10643 10644 10644 10644 10644 10643 10642 10642 10642 10642 10642 10642 10642 10643 10644 10645 10645 10645 10644 10643 10641 10639 10638 10638 10637 10636 10633 10632 10631 10630 10632 10633 10633 10633 10633 10634 10636 10639 10642 10643 10644 10646 10647 10647 10648 10650 10653 10654 10655 10657 10658 10659 10660 10661 10663 10665 10666 10668 10668 10669 10671 10671 10671 10672 10673 10674 10674 10675 10676 10677 10678 10680 10683 10685 10687 10688 10690 10692 10693 10694
10640 10642 10641 10639 10640 10640 10640 10640 10639 10639 10638 10638 10637 10638 10638 10638 10638 10637 10636 10637 10638 10639 10640 10640 10639 10637 10635 10633 10632 10633 10632 10630 10627 10625 10625 10626 10627 10628 10628 10628 10628 10630 10633 10636 10638 10639 10640 10641 10642 10643 10645 10648 10648 10650 10652 10653 10654 10655 10656 10658 10659 10661 10662 10662 10663 10666 10668 10668 10668 10670 10671 10671 10672 10672 10673 10675 10677 10679 10681 10683 10685 10687 10688 10689 10690
10636 10638 10637 10637 10637 10637 10637 10636 10635 10634 10634 10634 10634 10633 10634 10635 10635 10635 10634 10633 10633 10633 10633 10633 10634 10633 10632 10629 10628 10627 10627 10626 10624 10622 10621 10621 10622 10623 10623 10623 10623 10624 10626 10629 10632 10633 10634 10635 10636 10637 10640 10642 10643 10644 10646 10648 10649 10650 10651 10653 10655 10657 10658 10657 10659 10662 10664 10665 10665 10665 10666 10668 10669 10669 10670 10671 10673 10675 10677 10679 10681 10683 10684 10685 10686
10632 10634 10634 10634 10634 10634 10633 10632 10631 10630 10629 10629 10628 10628 10628 10629 10631 10632 10632 10631 10630 10629 10628 10628 10627 10627 10627 10626 10625 10623 10622 10621 10620 10618 10617 10617 10617 10617 10618 10618 10618 10619 10620 10623 10625 10627 10629 10629 10630 10632 10634 10636 10637 10639 10641 10643 10645 10645 10647 10649 10650 10652 10653 10653 10654 10657 10659 10660 10661 10661 10662 10664 10666 10667 10667 10668 10670 10672 10674 10675 10677 10679 10680 10681 10682
10627 10628 10629 10629 10630 10630 10629 10628 10626 10625 10624 10624 10622 10621 10621 10623 10625 10627 10628 10628 10627 10626 10625 10625 10624 10623 10622 10622 10621 10620 10619 10617 10616 10614 10614 10613 10613 10613 10613 10614 10614 10614 10615 10616 10618 10621 10622 10623 10624 10625 10627 10629 10631 10633 10636 10639 10640 10641 10642 10644 10646 10647 10649 10649 10650 10652 10654 10656 10656 10657 10659 10660 10662 10663 10664 10666 10667 10669 10671 10672 10674 10675 10677 10679 10679
10620 10622 10623 10624 10624 10625 10624 10623 10621 10619 10619 10619 10617 10616 10615 10617 10619 10621 10623 10623 10623 10623 10623 10622 10621 10620 10619 10618 10618 10617 10616 10615 10613 10611 10610 10610 10610 10609 10609 10610 10610 10610 10610 10611 10612 10614 10616 10617 10618 10619 10621 10623 10625 10627 10630 10633 10636 10637 10638 10639 10641 10642 10644 10645 10646 10647 10649 10652 10653 10654 10655 10656 10657 10659 10660 10662 10664 10666 10668 10669 10671 10672 10674 10675 10676
10615 10616 10617 10618 10619 10620 10619 10618 10616 10614 10614 10614 10613 10612 10611 10612 10614 10616 10617 10618 10619 10619 10619 10618 10617 10616 10615 10614 10613 10613 10613 10612 10611 10609 10608 10607 10606 10606 10605 10606 10606 10606 10606 10606 10607 10608 10610 10611 10613 10614 10615 10617 10618 10621 10623 10627 10630 10633 10634 10634 10636 10638 10639 10641 10642 10643 10644 10647 10649 10650 10651 10652 10653 10654 10656 10657 10660 10662 10664 10666 10667 10669 10670 10672 10673
10610 10610 10612 10613 10614 10615 10614 10613 10611 10610 10610 10610 10610 10609 10608 10608 10609 10611 10612 10612 10614 10614 10614 10614 10613 10612 10611 10610 10609 10609 10609 10609 10608 10607 10606 10605 10604 10603 10602 10602 10602 10602 10602 10602 10602 10603 10604 10606 10607 10609 10610 10611 10613 10615 10617 10620 10623 10627 10628 10629 10631 10634 10635 10636 10637 10638 10640 10642 10644 10645 10646 10647 10649 10650 10651 10653 10655 10657 10659 10661 10663 10665 10666 10668 10669
10605 10606 10608 10609 10610 10610 10609 10608 10607 10606 10607 10607 10607 10606 10605 10604 10605 10607 10607 10607 10608 10609 10609 10608 10608 10608 10607 10606 10605 10604 10604 10604 10604 10603 10603 10603 10602 10601 10600 10599 10599 10599 10598 10598 10598 10599 10600 10601 10602 10604 10605 10606 10608 10609 10611 10614 10616 10619 10622 10624 10626 10628 10631 10632 10633 10634 10635 10637 10639 10640 10641 10642 10644 10646 10647 10649 10651 10653 10655 10657 10658 10660 10661 10663 10665
10602 10602 10604 10605 10606 10606 10605 10605 10604 10605 10605 10605 10605 10605 10603 10602 10600 10602 10603 10603 10604 10605 10604 10603 10603 10603 10603 10601 10600 10600 10600 10600 10600 10600 10599 10599 10599 10598 10597 10597 10596 10596 10595 10595 10595 10596 10596 10597 10598 10599 10601 10602 10604 10605 10607 10608 10610 10613 10616 10618 10620 10622 10625 10628 10629 10630 10631 10632 10634 10635 10636 10638 10639 10641 10643 10645 10647 10649 10651 10652 10654 10655 10656 10658 10660
10598 10598 10598 10600 10601 10602 10602 10602 10603 10604 10605 10604 10604 10602 10601 10599 10596 10596 10599 10600 10600 10600 10599 10598 10598 10598 10597 10596 10596 10595 10595 10595 10596 10596 10596 10596 10596 10595 10595 10594 10594 10593 10593 10593 10593 10593 10593 10594 10595 10596 10597 10599 10600 10602 10603 10604 10605 10608 10610 10612 10614 10617 10619 10622 10624 10626 10627 10628 10629 10630 10631 10633 10635 10636 10638 10641 10643 10645 10646 10648 10649 10649 10650 10653 10655
10593 10593 10593 10595 10597 10600 10602 10602 10602 10602 10602 10601 10600 10598 10596 10596 10594 10592 10593 10594 10594 10594 10593 10592 10592 10592 10592 10591 10591 10591 10591 10591 10591 10592 10592 10592 10592 10592 10592 10592 10591 10591 10590 10590 10590 10590 10591 10591 10592 10593 10594 10595 10596 10598 10599 10600 10601 10603 10605 10606 10609 10611 10614 10616 10619 10621 10623 10624 10624 10625 10626 10628 10630 10632 10634 10636 10638 10639 10641 10643 10645 10644 10644 10647 10649